When you browse on this site, cookies collect data to enhance your experience and personalize the content and advertising you see.
Visit our Privacy Policy to learn more. By continuing to use the site, you agree to this use of cookies and data.
  • în România
  • Lista ţărilor
  • Pe 7 zile
  • Temperatura apei
  • Meteo pe hartă
  • Widget-uri
  • user-avatar
    Intrare

    Meteo pe oră la Saint-Nazaire

    Astăzi, 20 August, Marţi

    Timp Temperatura Precipitaţii Vânt Presiune Umiditate
    00:00 +13°C° 0 mm 3 m/s 767 mmHg 85%
    01:00 +13°C° 0 mm 3 m/s 767 mmHg 86%
    02:00 +12°C° 0 mm 3 m/s 766 mmHg 88%
    03:00 +12°C° 0 mm 3 m/s 766 mmHg 89%
    04:00 +13°C° 0 mm 2 m/s 767 mmHg 89%
    05:00 +13°C° 0 mm 2 m/s 767 mmHg 89%
    06:00 +13°C° 0 mm 2 m/s 767 mmHg 89%
    07:00 +15°C° 0 mm 2 m/s 768 mmHg 79%
    08:00 +17°C° 0 mm 2 m/s 768 mmHg 69%
    09:00 +19°C° 0 mm 2 m/s 768 mmHg 60%
    10:00 +20°C° 0 mm 2 m/s 768 mmHg 55%
    11:00 +21°C° 0 mm 3 m/s 768 mmHg 50%
    12:00 +22°C° 0 mm 3 m/s 768 mmHg 45%
    13:00 +22°C° 0 mm 3 m/s 768 mmHg 46%
    14:00 +22°C° 0 mm 4 m/s 768 mmHg 46%
    15:00 +23°C° 0 mm 5 m/s 769 mmHg 47%
    16:00 +22°C° 0 mm 5 m/s 769 mmHg 51%
    17:00 +21°C° 0 mm 5 m/s 769 mmHg 56%
    18:00 +20°C° 0 mm 5 m/s 769 mmHg 60%
    19:00 +17°C° 0 mm 5 m/s 769 mmHg 65%
    20:00 +16°C° 0 mm 5 m/s 769 mmHg 70%
    21:00 +14°C° 0 mm 5 m/s 770 mmHg 74%
    22:00 +14°C° 0 mm 5 m/s 770 mmHg 74%
    23:00 +13°C° 0 mm 5 m/s 769 mmHg 74%

    Mâine, 21 August, Miercuri

    Timp Temperatura Precipitaţii Vânt Presiune Umiditate
    00:00 +12°C° 0 mm 5 m/s 769 mmHg 73%
    01:00 +12°C° 0 mm 5 m/s 769 mmHg 77%
    02:00 +12°C° 0 mm 5 m/s 769 mmHg 81%
    03:00 +10°C° 0 mm 5 m/s 769 mmHg 85%
    04:00 +12°C° 0 mm 5 m/s 769 mmHg 86%
    05:00 +12°C° 0 mm 5 m/s 769 mmHg 86%
    06:00 +12°C° 0 mm 4 m/s 769 mmHg 87%
    07:00 +14°C° 0 mm 4 m/s 769 mmHg 77%
    08:00 +18°C° 0 mm 4 m/s 769 mmHg 66%
    09:00 +20°C° 0 mm 4 m/s 769 mmHg 56%
    10:00 +22°C° 0 mm 3 m/s 769 mmHg 51%
    11:00 +24°C° 0 mm 2 m/s 768 mmHg 45%
    12:00 +26°C° 0 mm 2 m/s 768 mmHg 40%
    13:00 +26°C° 0 mm 2 m/s 768 mmHg 38%
    14:00 +27°C° 0 mm 3 m/s 767 mmHg 37%
    15:00 +27°C° 0 mm 3 m/s 767 mmHg 35%
    16:00 +26°C° 0 mm 3 m/s 767 mmHg 39%
    17:00 +25°C° 0 mm 4 m/s 767 mmHg 43%
    18:00 +23°C° 0 mm 4 m/s 767 mmHg 47%
    19:00 +21°C° 0 mm 4 m/s 767 mmHg 53%
    20:00 +19°C° 0 mm 4 m/s 767 mmHg 58%
    21:00 +17°C° 0 mm 4 m/s 768 mmHg 64%
    22:00 +17°C° 0 mm 4 m/s 768 mmHg 67%
    23:00 +15°C° 0 mm 4 m/s 768 mmHg 70%

    Poimâine, 22 August, Joi

    Timp Temperatura Precipitaţii Vânt Presiune Umiditate
    00:00 +14°C° 0 mm 4 m/s 768 mmHg 72%
    01:00 +14°C° 0 mm 4 m/s 768 mmHg 74%
    02:00 +14°C° 0 mm 4 m/s 767 mmHg 75%
    03:00 +14°C° 0 mm 4 m/s 767 mmHg 76%
    04:00 +13°C° 0 mm 4 m/s 768 mmHg 76%
    05:00 +13°C° 0 mm 3 m/s 768 mmHg 76%
    06:00 +13°C° 0 mm 3 m/s 768 mmHg 77%
    07:00 +17°C° 0 mm 3 m/s 768 mmHg 68%
    08:00 +20°C° 0 mm 3 m/s 768 mmHg 59%
    09:00 +23°C° 0 mm 2 m/s 768 mmHg 50%
    10:00 +25°C° 0 mm 2 m/s 768 mmHg 45%
    11:00 +26°C° 0 mm 2 m/s 768 mmHg 40%
    12:00 +28°C° 0 mm 2 m/s 768 mmHg 35%
    13:00 +28°C° 0 mm 2 m/s 768 mmHg 34%
    14:00 +28°C° 0 mm 3 m/s 767 mmHg 33%
    15:00 +29°C° 0 mm 3 m/s 767 mmHg 32%
    16:00 +28°C° 0 mm 4 m/s 767 mmHg 36%
    17:00 +27°C° 0 mm 4 m/s 767 mmHg 40%
    18:00 +26°C° 0 mm 4 m/s 767 mmHg 44%
    19:00 +23°C° 0 mm 5 m/s 767 mmHg 52%
    20:00 +21°C° 0 mm 5 m/s 767 mmHg 60%
    21:00 +19°C° 0 mm 5 m/s 768 mmHg 68%
    22:00 +17°C° 0 mm 5 m/s 767 mmHg 72%
    23:00 +16°C° 0 mm 5 m/s 767 mmHg 75%

    23 August, Vineri

    Timp Temperatura Precipitaţii Vânt Presiune Umiditate
    00:00 +15°C° 0 mm 5 m/s 767 mmHg 79%
    01:00 +15°C° 0 mm 5 m/s 767 mmHg 78%
    02:00 +15°C° 0 mm 5 m/s 767 mmHg 77%
    03:00 +15°C° 0 mm 5 m/s 766 mmHg 77%
    04:00 +15°C° 0 mm 5 m/s 766 mmHg 76%
    05:00 +15°C° 0 mm 5 m/s 766 mmHg 76%
    06:00 +15°C° 0 mm 5 m/s 766 mmHg 76%
    07:00 +17°C° 0 mm 5 m/s 766 mmHg 67%
    08:00 +21°C° 0 mm 5 m/s 766 mmHg 59%
    09:00 +23°C° 0 mm 5 m/s 766 mmHg 50%
    10:00 +26°C° 0 mm 5 m/s 766 mmHg 45%
    11:00 +27°C° 0 mm 5 m/s 765 mmHg 39%
    12:00 +29°C° 0 mm 5 m/s 765 mmHg 34%
    13:00 +29°C° 0 mm 4 m/s 765 mmHg 33%
    14:00 +30°C° 0 mm 4 m/s 764 mmHg 32%
    15:00 +30°C° 0 mm 4 m/s 764 mmHg 31%
    16:00 +29°C° 0 mm 4 m/s 763 mmHg 34%
    17:00 +29°C° 0 mm 4 m/s 763 mmHg 36%
    18:00 +28°C° 0 mm 4 m/s 763 mmHg 39%
    19:00 +26°C° 0 mm 4 m/s 763 mmHg 45%
    20:00 +23°C° 0 mm 5 m/s 763 mmHg 51%
    21:00 +21°C° 0 mm 5 m/s 763 mmHg 57%
    22:00 +20°C° 0 mm 5 m/s 763 mmHg 60%
    23:00 +20°C° 0 mm 5 m/s 763 mmHg 63%

    24 August, Sâmbătă

    Timp Temperatura Precipitaţii Vânt Presiune Umiditate
    00:00 +19°C° 0 mm 5 m/s 762 mmHg 66%
    01:00 +18°C° 0 mm 4 m/s 762 mmHg 67%
    02:00 +18°C° 0 mm 4 m/s 762 mmHg 69%
    03:00 +18°C° 0 mm 4 m/s 761 mmHg 70%
    04:00 +17°C° 0 mm 4 m/s 761 mmHg 71%
    05:00 +17°C° 0 mm 4 m/s 761 mmHg 71%
    06:00 +17°C° 0 mm 4 m/s 761 mmHg 72%
    07:00 +20°C° 0 mm 4 m/s 761 mmHg 64%
    08:00 +24°C° 0 mm 3 m/s 761 mmHg 55%
    09:00 +26°C° 0 mm 3 m/s 761 mmHg 47%
    10:00 +28°C° 0 mm 3 m/s 761 mmHg 41%
    11:00 +30°C° 0 mm 3 m/s 761 mmHg 36%
    12:00 +33°C° 0 mm 3 m/s 760 mmHg 30%
    13:00 +33°C° 0 mm 3 m/s 760 mmHg 31%
    14:00 +33°C° 0 mm 3 m/s 760 mmHg 31%
    15:00 +33°C° 0 mm 4 m/s 760 mmHg 32%
    16:00 +30°C° 0 mm 3 m/s 759 mmHg 36%
    17:00 +28°C° 0 mm 3 m/s 759 mmHg 40%
    18:00 +27°C° 0 mm 3 m/s 759 mmHg 45%
    19:00 +25°C° 0 mm 2 m/s 759 mmHg 49%
    20:00 +24°C° 0 mm 1 m/s 760 mmHg 54%
    21:00 +22°C° 0 mm 1 m/s 760 mmHg 59%
    22:00 +21°C° 0 mm 1 m/s 760 mmHg 60%
    23:00 +19°C° 0 mm 0 m/s 760 mmHg 61%

    25 August, Duminică

    Timp Temperatura Precipitaţii Vânt Presiune Umiditate
    00:00 +18°C° 0 mm 0 m/s 760 mmHg 62%
    01:00 +21°C° 0 mm 1 m/s 760 mmHg 62%
    02:00 +21°C° 0 mm 1 m/s 759 mmHg 61%
    03:00 +22°C° 0 mm 1 m/s 759 mmHg 61%
    04:00 +20°C° 0.1 mm 2 m/s 759 mmHg 67%
    05:00 +20°C° 0.1 mm 3 m/s 759 mmHg 74%
    06:00 +19°C° 0.1 mm 3 m/s 760 mmHg 80%
    07:00 +20°C° 0.2 mm 3 m/s 760 mmHg 78%
    08:00 +21°C° 0.2 mm 3 m/s 760 mmHg 76%
    09:00 +22°C° 0.2 mm 3 m/s 761 mmHg 74%
    10:00 +24°C° 0 mm 3 m/s 761 mmHg 68%
    11:00 +25°C° 0 mm 4 m/s 761 mmHg 62%
    12:00 +26°C° 0 mm 4 m/s 761 mmHg 56%
    13:00 +26°C° 0 mm 4 m/s 761 mmHg 57%
    14:00 +26°C° 0 mm 4 m/s 761 mmHg 57%
    15:00 +26°C° 0 mm 4 m/s 761 mmHg 57%
    16:00 +23°C° 0 mm 4 m/s 761 mmHg 64%
    17:00 +22°C° 0 mm 4 m/s 761 mmHg 70%
    18:00 +21°C° 0 mm 5 m/s 761 mmHg 77%
    19:00 +20°C° 0 mm 4 m/s 761 mmHg 81%
    20:00 +19°C° 0 mm 3 m/s 762 mmHg 86%
    21:00 +18°C° 0 mm 3 m/s 762 mmHg 91%
    22:00 +17°C° 0 mm 2 m/s 762 mmHg 90%
    23:00 +17°C° 0 mm 2 m/s 762 mmHg 90%
    Arată mai mult